ASA34 KSEA-KJFK

Flight info

Callsign ASA34
Flight time N/A
Altitude 33000
Route MONTN2 SEA ZADON ZELAK ZIRAN ZAXBY BLOWS KU12U KP06C GEP DLL HASTE DAFLU J70 JHW Q476 WLKES PUCKY1
Aircraft B738/M-SDE2E3FGHIRWXY/LB1

Departure

Time 2026-05-01 13:13
Airport Seattle–Tacoma International Airport (KSEA)

Arrival

Time N/A
Airport John F. Kennedy International Airport (KJFK)
Time Latitude Longitude Altitude Speed Heading
2026-05-01 12:48 47.44840 -122.30354 408 ft 0 kts 40°
2026-05-01 13:07 47.44800 -122.30550 406 ft 12 kts 242°
2026-05-01 13:07 47.44715 -122.30628 401 ft 18 kts 186°
2026-05-01 13:07 47.44576 -122.30631 394 ft 22 kts 180°
2026-05-01 13:08 47.44426 -122.30633 392 ft 21 kts 180°
2026-05-01 13:08 47.44281 -122.30635 390 ft 20 kts 180°
2026-05-01 13:08 47.44141 -122.30635 386 ft 20 kts 181°
2026-05-01 13:08 47.44006 -122.30636 383 ft 19 kts 180°
2026-05-01 13:09 47.43876 -122.30638 379 ft 18 kts 180°
2026-05-01 13:09 47.43752 -122.30638 375 ft 17 kts 180°
2026-05-01 13:09 47.43634 -122.30622 371 ft 17 kts 159°
2026-05-01 13:09 47.43528 -122.30561 369 ft 17 kts 176°
2026-05-01 13:10 47.43411 -122.30561 367 ft 17 kts 180°
2026-05-01 13:10 47.43289 -122.30562 365 ft 18 kts 180°
2026-05-01 13:10 47.43210 -122.30599 365 ft 7 kts 216°
2026-05-01 13:10 47.43181 -122.30643 361 ft 2 kts 240°
2026-05-01 13:11 47.43177 -122.30666 357 ft 2 kts 262°
2026-05-01 13:11 47.43176 -122.30696 357 ft 5 kts 270°
2026-05-01 13:11 47.43193 -122.30789 365 ft 12 kts 317°
2026-05-01 13:11 47.43274 -122.30804 358 ft 12 kts
2026-05-01 13:12 47.43443 -122.30803 366 ft 51 kts
2026-05-01 13:12 47.44026 -122.30798 383 ft 114 kts
2026-05-01 13:12 47.44989 -122.30784 419 ft 164 kts
2026-05-01 13:12 47.45432 -122.30775 537 ft 172 kts
2026-05-01 13:13 47.46624 -122.30764 1342 ft 170 kts 360°
2026-05-01 13:13 47.47838 -122.30798 1984 ft 181 kts 359°
2026-05-01 13:13 47.49113 -122.30834 2636 ft 185 kts 359°
2026-05-01 13:13 47.50442 -122.30866 3230 ft 197 kts 359°
2026-05-01 13:14 47.51835 -122.30883 3856 ft 201 kts
2026-05-01 13:14 47.53165 -122.30278 4401 ft 210 kts 36°
2026-05-01 13:14 47.54066 -122.28498 4549 ft 229 kts 75°
2026-05-01 13:14 47.54142 -122.26077 4829 ft 244 kts 93°
2026-05-01 13:15 47.54097 -122.23513 5064 ft 263 kts 91°
2026-05-01 13:15 47.54099 -122.20742 5582 ft 274 kts 90°
2026-05-01 13:15 47.54146 -122.17915 6392 ft 275 kts 89°
2026-05-01 13:15 47.54227 -122.15064 7137 ft 278 kts 88°
2026-05-01 13:16 47.54332 -122.12205 7821 ft 283 kts 87°
2026-05-01 13:16 47.54457 -122.09247 8525 ft 288 kts 87°
2026-05-01 13:16 47.54594 -122.06273 9229 ft 292 kts 86°
2026-05-01 13:17 47.55053 -121.96922 10574 ft 332 kts 86°
2026-05-01 13:17 47.55229 -121.93405 10741 ft 353 kts 86°
2026-05-01 13:18 47.55612 -121.85774 11206 ft 386 kts 86°
2026-05-01 13:18 47.55812 -121.81771 11771 ft 391 kts 86°
2026-05-01 13:18 47.56012 -121.77738 12408 ft 394 kts 87°
2026-05-01 13:18 47.56202 -121.73678 13012 ft 398 kts 88°
2026-05-01 13:19 47.56238 -121.69550 13592 ft 402 kts 92°
2026-05-01 13:19 47.56169 -121.65404 14122 ft 406 kts 93°
2026-05-01 13:19 47.56030 -121.57048 15238 ft 411 kts 92°
2026-05-01 13:20 47.55981 -121.52810 15791 ft 414 kts 92°
2026-05-01 13:20 47.55924 -121.48526 16327 ft 417 kts 93°
2026-05-01 13:20 47.55861 -121.44225 16889 ft 419 kts 93°
2026-05-01 13:21 47.55727 -121.35537 17905 ft 426 kts 93°
2026-05-01 13:21 47.55657 -121.31132 18417 ft 428 kts 93°
2026-05-01 13:21 47.55586 -121.26720 18844 ft 431 kts 93°
2026-05-01 13:21 47.55514 -121.22326 19286 ft 434 kts 93°
2026-05-01 13:22 47.55439 -121.17851 19718 ft 437 kts 93°
2026-05-01 13:22 47.55361 -121.13335 20158 ft 440 kts 93°
2026-05-01 13:22 47.55282 -121.08792 20590 ft 443 kts 93°
2026-05-01 13:22 47.55200 -121.04225 21000 ft 445 kts 93°
2026-05-01 13:23 47.55115 -120.99632 21411 ft 448 kts 93°
2026-05-01 13:23 47.55029 -120.95011 21800 ft 451 kts 93°
2026-05-01 13:23 47.54940 -120.90362 22185 ft 454 kts 92°
2026-05-01 13:23 47.54849 -120.85691 22570 ft 456 kts 92°
2026-05-01 13:24 47.54757 -120.81043 22949 ft 459 kts 92°
2026-05-01 13:24 47.54660 -120.76309 23328 ft 461 kts 92°
2026-05-01 13:24 47.54561 -120.71559 23688 ft 463 kts 92°
2026-05-01 13:25 47.54357 -120.61981 24272 ft 468 kts 92°
2026-05-01 13:25 47.54251 -120.57162 24574 ft 469 kts 92°
2026-05-01 13:25 47.54143 -120.52318 24872 ft 471 kts 92°
2026-05-01 13:25 47.54032 -120.47455 25162 ft 474 kts 92°
2026-05-01 13:26 47.53920 -120.42651 25440 ft 475 kts 92°
2026-05-01 13:26 47.53818 -120.37740 25719 ft 478 kts 92°
2026-05-01 13:26 47.53740 -120.32821 25992 ft 479 kts 91°
2026-05-01 13:26 47.53672 -120.27882 26266 ft 481 kts 91°
2026-05-01 13:27 47.53605 -120.22928 26526 ft 483 kts 91°
2026-05-01 13:27 47.53535 -120.17951 26773 ft 485 kts 91°
2026-05-01 13:27 47.53428 -120.10872 27117 ft 487 kts 91°
2026-05-01 13:28 47.53261 -120.00840 27749 ft 487 kts 91°
2026-05-01 13:28 47.53175 -119.95917 28128 ft 485 kts 91°
2026-05-01 13:29 47.52993 -119.85972 28868 ft 483 kts 91°
2026-05-01 13:29 47.52804 -119.76041 29556 ft 482 kts 92°
2026-05-01 13:30 47.52403 -119.56387 30803 ft 479 kts 91°
2026-05-01 13:31 47.52191 -119.46560 31343 ft 478 kts 91°
2026-05-01 13:31 47.51856 -119.31828 32126 ft 477 kts 91°
2026-05-01 13:32 47.51624 -119.22048 32642 ft 476 kts 91°
2026-05-01 13:33 47.51265 -119.07591 33097 ft 479 kts 91°
2026-05-01 13:33 47.51011 -118.97786 33104 ft 475 kts 91°
2026-05-01 13:34 47.50483 -118.78389 33115 ft 470 kts 92°
2026-05-01 13:35 47.50072 -118.64000 33109 ft 468 kts 92°
2026-05-01 13:36 47.49640 -118.49574 33111 ft 469 kts 92°
2026-05-01 13:36 47.49189 -118.35098 33105 ft 471 kts 92°
2026-05-01 13:37 47.48877 -118.25405 33106 ft 472 kts 92°
2026-05-01 13:37 47.48558 -118.15756 33107 ft 474 kts 92°
2026-05-01 13:38 47.48061 -118.01177 33115 ft 475 kts 92°
2026-05-01 13:39 47.47717 -117.91406 33115 ft 475 kts 92°
2026-05-01 13:39 47.47367 -117.81667 33120 ft 474 kts 92°
2026-05-01 13:40 47.47012 -117.72021 33127 ft 474 kts 92°
2026-05-01 13:40 47.46646 -117.62295 33122 ft 472 kts 92°
2026-05-01 13:41 47.46143 -117.52629 33133 ft 471 kts 95°
2026-05-01 13:41 47.45476 -117.43011 33133 ft 470 kts 95°
2026-05-01 13:42 47.44810 -117.33476 33137 ft 469 kts 95°
2026-05-01 13:42 47.44157 -117.23885 33151 ft 468 kts 95°
2026-05-01 13:43 47.43699 -117.17100 33152 ft 468 kts 95°
2026-05-01 13:43 47.43049 -117.07542 33158 ft 467 kts 95°
2026-05-01 13:44 47.42393 -116.98015 33170 ft 466 kts 95°
2026-05-01 13:44 47.41732 -116.88552 33171 ft 466 kts 95°
2026-05-01 13:45 47.41060 -116.79038 33167 ft 466 kts 95°
2026-05-01 13:45 47.40379 -116.69524 33154 ft 466 kts 95°
2026-05-01 13:46 47.39690 -116.60010 33144 ft 466 kts 95°
2026-05-01 13:46 47.38999 -116.50567 33131 ft 466 kts 95°
2026-05-01 13:47 47.38294 -116.41062 33121 ft 466 kts 95°
2026-05-01 13:47 47.37581 -116.31540 33100 ft 467 kts 95°
2026-05-01 13:48 47.36861 -116.22038 33089 ft 466 kts 96°
2026-05-01 13:48 47.36138 -116.12594 33074 ft 466 kts 96°
2026-05-01 13:49 47.35402 -116.03100 33058 ft 466 kts 96°
2026-05-01 13:49 47.34659 -115.93609 33046 ft 466 kts 96°
2026-05-01 13:50 47.33909 -115.84133 33044 ft 465 kts 96°
2026-05-01 13:50 47.33157 -115.74731 33035 ft 464 kts 96°
2026-05-01 13:51 47.32395 -115.65308 33034 ft 464 kts 96°
2026-05-01 13:51 47.31624 -115.55863 33043 ft 463 kts 96°
2026-05-01 13:52 47.30852 -115.46515 33047 ft 462 kts 96°
2026-05-01 13:52 47.30069 -115.37121 33056 ft 462 kts 97°
2026-05-01 13:53 47.29279 -115.27726 33068 ft 462 kts 97°
2026-05-01 13:53 47.28079 -115.13654 33086 ft 462 kts 97°
2026-05-01 13:54 47.27271 -115.04265 33096 ft 462 kts 97°
2026-05-01 13:54 47.26794 -114.94910 33124 ft 461 kts 89°
2026-05-01 13:55 47.26901 -114.85472 33127 ft 462 kts 88°
2026-05-01 13:55 47.27055 -114.75998 33147 ft 462 kts 88°
2026-05-01 13:56 47.27159 -114.66533 33162 ft 462 kts 89°
2026-05-01 13:56 47.27224 -114.57068 33169 ft 463 kts 89°
2026-05-01 13:57 47.27264 -114.49198 33179 ft 462 kts 89°
2026-05-01 13:57 47.27299 -114.41103 33183 ft 462 kts 89°
2026-05-01 13:58 47.27334 -114.31654 33193 ft 462 kts 89°
2026-05-01 13:58 47.27362 -114.22261 33203 ft 461 kts 89°
2026-05-01 13:59 47.27383 -114.12818 33198 ft 461 kts 89°
2026-05-01 13:59 47.27396 -114.03386 33197 ft 461 kts 89°
2026-05-01 14:00 47.27401 -113.93952 33192 ft 460 kts 89°
2026-05-01 14:00 47.27398 -113.84547 33195 ft 459 kts 89°
2026-05-01 14:01 47.27388 -113.75148 33185 ft 459 kts 89°
2026-05-01 14:01 47.27371 -113.65827 33188 ft 458 kts 89°
2026-05-01 14:02 47.27345 -113.56442 33189 ft 458 kts 89°
2026-05-01 14:02 47.27312 -113.47087 33193 ft 457 kts 89°
2026-05-01 14:03 47.27271 -113.37709 33188 ft 457 kts 89°
2026-05-01 14:03 47.27224 -113.28412 33185 ft 457 kts 89°
2026-05-01 14:04 47.27167 -113.19037 33188 ft 457 kts 89°
2026-05-01 14:04 47.27115 -113.11265 33173 ft 457 kts 89°
2026-05-01 14:05 47.27033 -113.00325 33164 ft 457 kts 89°
2026-05-01 14:05 47.26955 -112.91021 33153 ft 457 kts 89°
2026-05-01 14:06 47.26868 -112.81675 33148 ft 457 kts 89°
2026-05-01 14:06 47.26774 -112.72326 33142 ft 456 kts 89°
2026-05-01 14:07 47.26673 -112.62997 33132 ft 456 kts 89°
2026-05-01 14:08 47.26508 -112.49074 33133 ft 455 kts 90°
2026-05-01 14:08 47.26389 -112.39770 33130 ft 455 kts 90°
2026-05-01 14:09 47.26261 -112.30448 33129 ft 455 kts 90°
2026-05-01 14:09 47.26126 -112.21153 33140 ft 454 kts 90°
2026-05-01 14:10 47.25985 -112.11927 33144 ft 454 kts 90°
2026-05-01 14:10 47.25836 -112.02644 33140 ft 454 kts 90°
2026-05-01 14:11 47.25678 -111.93352 33138 ft 454 kts 90°
2026-05-01 14:11 47.25430 -111.79484 33136 ft 454 kts 90°
2026-05-01 14:12 47.25254 -111.70200 33131 ft 454 kts 90°
2026-05-01 14:12 47.25127 -111.63713 33134 ft 454 kts 90°
2026-05-01 14:13 47.24971 -111.55998 33137 ft 454 kts 90°
2026-05-01 14:13 47.24742 -111.45132 33143 ft 454 kts 90°
2026-05-01 14:14 47.24540 -111.35903 33142 ft 454 kts 90°
2026-05-01 14:14 47.24329 -111.26617 33151 ft 454 kts 90°
2026-05-01 14:15 47.24110 -111.17341 33151 ft 454 kts 90°
2026-05-01 14:15 47.23884 -111.08054 33151 ft 454 kts 90°
2026-05-01 14:16 47.23652 -110.98837 33134 ft 454 kts 90°
2026-05-01 14:16 47.23412 -110.89574 33158 ft 453 kts 90°
2026-05-01 14:17 47.23164 -110.80309 33151 ft 453 kts 90°
2026-05-01 14:17 47.22908 -110.71048 33148 ft 453 kts 90°
2026-05-01 14:18 47.22646 -110.61797 33143 ft 452 kts 90°
2026-05-01 14:18 47.22423 -110.54126 33127 ft 452 kts 90°
2026-05-01 14:19 47.22101 -110.43382 33140 ft 452 kts 90°
2026-05-01 14:19 47.21816 -110.34152 33140 ft 452 kts 90°
2026-05-01 14:20 47.21378 -110.20378 33129 ft 451 kts 90°
2026-05-01 14:21 47.21076 -110.11167 33132 ft 451 kts 90°
2026-05-01 14:21 47.20767 -110.01967 33126 ft 451 kts 90°
2026-05-01 14:22 47.20288 -109.88150 33132 ft 450 kts 90°
2026-05-01 14:22 47.19963 -109.79024 33132 ft 450 kts 90°
2026-05-01 14:23 47.19628 -109.69829 33131 ft 450 kts 90°
2026-05-01 14:23 47.19286 -109.60642 33129 ft 450 kts 90°
2026-05-01 14:24 47.18937 -109.51471 33121 ft 450 kts 90°
2026-05-01 14:24 47.18581 -109.42299 33114 ft 450 kts 90°
2026-05-01 14:25 47.18220 -109.33176 33111 ft 449 kts 90°
2026-05-01 14:25 47.17849 -109.24021 33102 ft 449 kts 90°
2026-05-01 14:26 47.17281 -109.10304 33092 ft 448 kts 90°
2026-05-01 14:27 47.16896 -109.01243 33097 ft 447 kts 89°
2026-05-01 14:27 47.16568 -108.93653 33094 ft 447 kts 89°
2026-05-01 14:28 47.16054 -108.81938 33094 ft 446 kts 89°
2026-05-01 14:28 47.15645 -108.72854 33099 ft 445 kts 89°
2026-05-01 14:29 47.15230 -108.63773 33101 ft 445 kts 89°
2026-05-01 14:30 47.14382 -108.45712 33115 ft 445 kts 89°
2026-05-01 14:31 47.13770 -108.33030 33132 ft 445 kts 89°
2026-05-01 14:31 47.13327 -108.24027 33125 ft 444 kts 89°
2026-05-01 14:32 47.12874 -108.14982 33134 ft 445 kts 89°
2026-05-01 14:32 47.12415 -108.05929 33131 ft 445 kts 89°
2026-05-01 14:33 47.11947 -107.96865 33135 ft 445 kts 89°
2026-05-01 14:33 47.11471 -107.87788 33128 ft 446 kts 89°
2026-05-01 14:34 47.10989 -107.78719 33128 ft 446 kts 89°
2026-05-01 14:34 47.10502 -107.69715 33125 ft 445 kts 89°
2026-05-01 14:35 47.10005 -107.60654 33126 ft 445 kts 89°
2026-05-01 14:35 47.09502 -107.51590 33119 ft 445 kts 89°
2026-05-01 14:36 47.09078 -107.44061 33120 ft 445 kts 89°
2026-05-01 14:36 47.08478 -107.33555 33116 ft 445 kts 89°
2026-05-01 14:37 47.07953 -107.24512 33123 ft 445 kts 89°
2026-05-01 14:37 47.07421 -107.15470 33126 ft 445 kts 89°
2026-05-01 14:38 47.06974 -107.07963 33130 ft 444 kts 89°
2026-05-01 14:38 47.06342 -106.97475 33137 ft 444 kts 89°
2026-05-01 14:39 47.05791 -106.88468 33132 ft 443 kts 89°
2026-05-01 14:39 47.05328 -106.80991 33138 ft 443 kts 89°
2026-05-01 14:40 47.04765 -106.71993 33135 ft 443 kts 89°
2026-05-01 14:40 47.04102 -106.61557 33148 ft 442 kts 89°
2026-05-01 14:41 47.03618 -106.54035 33152 ft 442 kts 89°
2026-05-01 14:41 47.03083 -106.45784 33146 ft 442 kts 89°
2026-05-01 14:42 47.02400 -106.35408 33150 ft 442 kts 89°
2026-05-01 14:42 47.01903 -106.27953 33152 ft 442 kts 89°
2026-05-01 14:43 47.01512 -106.22129 33147 ft 442 kts 89°
2026-05-01 14:43 47.00906 -106.13180 33155 ft 442 kts 89°
2026-05-01 14:44 47.00293 -106.04225 33151 ft 442 kts 89°
2026-05-01 14:44 46.99243 -105.90868 33159 ft 442 kts 90°
2026-05-01 14:45 46.98005 -105.77506 33154 ft 443 kts 90°
2026-05-01 14:46 46.97202 -105.68804 33151 ft 442 kts 90°
2026-05-01 14:46 46.95977 -105.55480 33166 ft 441 kts 90°
2026-05-01 14:47 46.95151 -105.46566 33164 ft 441 kts 90°
2026-05-01 14:48 46.93910 -105.33300 33159 ft 441 kts 90°
2026-05-01 14:48 46.92646 -105.19978 33162 ft 441 kts 90°
2026-05-01 14:49 46.90945 -105.02307 33175 ft 440 kts 90°
2026-05-01 14:50 46.89213 -104.84598 33179 ft 440 kts 90°
2026-05-01 14:51 46.87898 -104.71357 33179 ft 440 kts 90°
2026-05-01 14:52 46.86564 -104.58068 33168 ft 441 kts 90°
2026-05-01 14:53 46.85233 -104.44981 33174 ft 441 kts 90°
2026-05-01 14:53 46.84319 -104.36081 33173 ft 441 kts 90°
2026-05-01 14:54 46.83424 -104.27429 33174 ft 441 kts 90°
2026-05-01 14:54 46.82500 -104.18571 33168 ft 442 kts 90°
2026-05-01 14:55 46.81569 -104.09710 33171 ft 441 kts 90°
2026-05-01 14:55 46.80631 -104.00852 33174 ft 441 kts 89°
2026-05-01 14:56 46.79695 -103.92080 33178 ft 441 kts 89°
2026-05-01 14:56 46.78746 -103.83249 33176 ft 440 kts 89°
2026-05-01 14:57 46.77790 -103.74424 33176 ft 440 kts 89°
2026-05-01 14:57 46.76630 -103.63805 33175 ft 439 kts 89°
2026-05-01 14:58 46.75670 -103.55073 33169 ft 439 kts 89°
2026-05-01 14:58 46.74696 -103.46298 33174 ft 438 kts 89°
2026-05-01 14:59 46.73716 -103.37518 33166 ft 438 kts 89°
2026-05-01 14:59 46.72732 -103.28766 33171 ft 438 kts 89°
2026-05-01 15:00 46.71247 -103.15685 33158 ft 438 kts 89°
2026-05-01 15:01 46.70246 -103.06935 33157 ft 438 kts 89°
2026-05-01 15:01 46.69237 -102.98186 33157 ft 438 kts 89°
2026-05-01 15:02 46.68223 -102.89447 33162 ft 438 kts 89°
2026-05-01 15:02 46.67207 -102.80760 33168 ft 438 kts 89°
2026-05-01 15:03 46.66179 -102.72025 33169 ft 438 kts 89°
2026-05-01 15:03 46.65145 -102.63298 33165 ft 438 kts 89°
2026-05-01 15:04 46.64103 -102.54562 33169 ft 438 kts 89°
2026-05-01 15:04 46.63062 -102.45898 33178 ft 438 kts 89°
2026-05-01 15:05 46.62006 -102.37158 33166 ft 439 kts 89°
2026-05-01 15:05 46.60941 -102.28414 33173 ft 439 kts 89°
2026-05-01 15:06 46.59869 -102.19660 33178 ft 440 kts 89°
2026-05-01 15:06 46.58788 -102.10900 33186 ft 440 kts 90°
2026-05-01 15:07 46.57707 -102.02191 33185 ft 441 kts 90°
2026-05-01 15:07 46.56610 -101.93417 33190 ft 442 kts 90°
2026-05-01 15:08 46.55505 -101.84635 33188 ft 442 kts 90°
2026-05-01 15:08 46.54392 -101.75846 33205 ft 443 kts 90°
2026-05-01 15:09 46.53271 -101.67045 33206 ft 443 kts 90°
2026-05-01 15:09 46.52141 -101.58236 33206 ft 444 kts 90°
2026-05-01 15:10 46.51011 -101.49482 33206 ft 445 kts 90°
2026-05-01 15:10 46.49287 -101.36226 33209 ft 446 kts 90°